アサシン彗星

C/2017 O1 ( ASASSN )

English version
Home page
Updated on August 29, 2017

---------------------------------------------------------------------

・ プロフィール

発見日 2017年7月19日
発見光度 15.3等
発見者 All-Sky Automated Survey for Supernovae (ASASSN)

・ 写真集

・ 軌道要素

Epoch 2017 Oct. 14.0 TT = JDT 2458040.5
T 2017 Oct. 14.76770 TT                                 MPCW
q   1.4989807            (2000.0)            P               Q
z  +0.0016530      Peri.   20.89354     +0.72174695     -0.63340226
 +/-0.0001429      Node    25.81824     +0.50852783     +0.21172992
e   0.9975222      Incl.   39.85071     +0.46955381     +0.74429297
From 635 observations 2017 July 19-Aug. 19, mean residual 0".4.

・ 星図

・ 光度変化

        m1 = 6.5 + 5 logΔ + 10.0 log r

---------------------------------------------------------------------

軌道要素はM.P.E.C. 2017-Q48に掲載されたものです。
星図はステラナビゲータ Ver.10 (アストロアーツ) で作成したものです。
光度グラフはComet for Windowsで作成したものです。

---------------------------------------------------------------------

Copyright(C) Seiichi Yoshida (comet@aerith.net). All rights reserved.